Bar Harbor, ME

5:27 AM EST on December 15, 2019 (GMT -0500)
Hancock County-Bar Harbor

Weather History for KBHB - August, 2019

Change the Weather History Date:

Wednesday, August 14, 2019

  Actual Average Record
Temperature  
Mean Temperature 66 °F -  
Max Temperature 75 °F 79 °F 92 °F (1978)
Min Temperature 57 °F 56 °F 40 °F (1949)
Cooling Degree Days 1    
Growing Degree Days 16 (Base 50)    
Moisture  
Dew Point 56 °F    
Average Humidity 74    
Maximum Humidity 97    
Minimum Humidity 55    
Precipitation  
Precipitation 0.02 in - - ()
Sea Level Pressure  
Sea Level Pressure 29.88 in    
Wind  
Wind Speed 5 mph (NE)    
Max Wind Speed 8 mph    
Max Gust Speed -    
Visibility 10 miles    
Events      
Averages and records for this station are not official NWS values.
T = Trace of Precipitation, MM = Missing Value Source: NWS Daily Summary

Daily Weather History Graph

Daily Weather History Graph

Search for Another Location

Airport or City:

Astronomy

Aug. 14, 2019 Rise Set
Actual Time 5:34 AM EDT 7:40 PM EDT
Civil Twilight 5:03 AM EDT 8:12 PM EDT
Nautical Twilight 4:24 AM EDT 8:51 PM EDT
Astronomical Twilight 3:40 AM EDT 9:33 PM EDT
Moon 7:35 PM EDT (8/14) 4:24 AM EDT (8/14)
Length of Visible Light 15h 09m
Length of Day
14h 05m
Waxing Gibbous, 99% of the Moon is Illuminated
Aug 14
Waxing Gibbous
Aug 15
Full
Aug 23
Last Quarter
Aug 30
New
Sep 5
First Quarter

Hourly Weather History & Observations

Time (EDT) Temp. Dew Point Humidity Pressure Visibility Wind Dir Wind Speed Gust Speed Precip Events Conditions
12:56 AM 61.0 °F 60.1 °F 97% 29.83 in 10.0 mi North 5.8 mph - 0.01 in   Clear
1:56 AM 61.0 °F 57.9 °F 90% 29.82 in 10.0 mi North 6.9 mph - N/A   Clear
2:56 AM 59.0 °F 55.9 °F 90% 29.82 in 10.0 mi North 6.9 mph - N/A   Clear
3:56 AM 57.9 °F 55.0 °F 90% 29.83 in 10.0 mi North 4.6 mph - N/A   Clear
4:56 AM 57.0 °F 53.1 °F 87% 29.85 in 10.0 mi Calm Calm - N/A   Clear
5:56 AM 57.0 °F 52.0 °F 83% 29.86 in 10.0 mi North 5.8 mph - N/A   Clear
6:56 AM 59.0 °F 54.0 °F 83% 29.88 in 10.0 mi North 4.6 mph - N/A   Clear
7:56 AM 63.0 °F 54.0 °F 72% 29.88 in 10.0 mi North 6.9 mph - N/A   Clear
8:56 AM 66.9 °F 55.0 °F 66% 29.88 in 10.0 mi NNE 6.9 mph - N/A   Clear
9:56 AM 70.0 °F 55.0 °F 59% 29.89 in 10.0 mi ESE 6.9 mph - N/A   Clear
10:56 AM 71.1 °F 57.9 °F 63% 29.89 in 10.0 mi SE 6.9 mph - N/A   Clear
11:56 AM 72.0 °F 59.0 °F 64% 29.88 in 10.0 mi ESE 6.9 mph - N/A   Clear
12:56 PM 73.9 °F 57.0 °F 55% 29.87 in 10.0 mi East 5.8 mph - N/A   Clear
1:56 PM 73.9 °F 57.9 °F 57% 29.87 in 10.0 mi ESE 5.8 mph - N/A   Scattered Clouds
2:56 PM 75.0 °F 60.1 °F 60% 29.86 in 10.0 mi East 8.1 mph - N/A   Clear
3:56 PM 73.9 °F 59.0 °F 59% 29.88 in 10.0 mi East 6.9 mph - N/A   Clear
4:56 PM 73.0 °F 55.9 °F 55% 29.88 in 10.0 mi East 5.8 mph - N/A   Clear
5:56 PM 73.0 °F 60.1 °F 64% 29.89 in 10.0 mi West 3.5 mph - N/A   Clear
6:56 PM 70.0 °F 59.0 °F 68% 29.91 in 10.0 mi SW 4.6 mph - N/A   Clear
7:56 PM 64.9 °F 59.0 °F 81% 29.92 in 10.0 mi Calm Calm - 0.01 in   Clear
8:56 PM 61.0 °F 55.9 °F 83% 29.94 in 10.0 mi Calm Calm - N/A   Clear
9:56 PM 59.0 °F 55.0 °F 87% 29.94 in 10.0 mi Calm Calm - N/A   Clear
10:56 PM 57.9 °F 53.1 °F 84% 29.96 in 10.0 mi Calm Calm - N/A   Clear
11:56 PM 57.0 °F 54.0 °F 89% 29.98 in 10.0 mi Calm Calm - N/A   Clear